Date String (YYYY-MM-DD hh:mm:ss) UTC,Instrument flags,absolute air pressure of the measurement (hPa),sample flow rate (lpm),inlet stack bypass flow (lpm),air temperature of the measurement (°C),ambient temperature measured by the external sensor (°C),aerosol sample conditioner tube jacket temperature (°C),OPC LED temperature (°C),internal box temperature (°C),relative humidity of the measurement (%),span deviation,mass concentration of particles derived from Lorenz-Mie calculation of OPC scattering (μg/m³),mass concentration of particles derived from Lorenz-Mie calculation of OPC scattering (μg/m³),mass concentration of particles derived from Lorenz-Mie calculation of OPC scattering (μg/m³)
DateTimeUTC,F1_M11,P_M11,Q1_M11,Q2_M11,T1_M11,T2_M11,T3_M11,T4_M11,T5_M11,U1_M11,ZSPAN_M11,X0_M11,X2_M11,X1_M11
2024-05-11 17:00:00,SystemResetWarning,0829.0,5.00,000.00,025.7,025.2,000.0,033.9,027.5,021.8,0000.0,0011.45,0006.12,0005.64
2024-05-11 17:01:00,SystemResetWarning,0828.9,5.01,000.00,025.8,025.2,000.0,034.0,027.5,022.0,0000.0,0011.84,0006.09,0005.63
2024-05-11 17:02:00,SystemResetWarning,0828.9,5.01,000.00,025.8,025.2,000.0,034.0,027.5,022.1,0000.0,0011.89,0006.08,0005.63
2024-05-11 17:03:00,SystemResetWarning,0828.8,4.98,000.00,025.7,023.8,000.0,034.1,026.8,022.6,0000.0,0011.92,0006.12,0005.65
2024-05-11 17:04:00,SystemResetWarning,0828.7,5.01,000.00,025.2,022.0,000.0,034.1,025.7,022.7,0000.0,0011.97,0006.13,0005.68
2024-05-11 17:05:00,SystemResetWarning,0828.7,5.01,000.00,024.9,021.9,000.0,034.0,025.6,023.2,0000.0,0012.13,0006.19,0005.72
2024-05-11 17:06:00,SystemResetWarning,0828.7,4.99,000.00,024.8,022.3,000.0,033.8,025.8,023.5,0000.0,0011.48,0006.28,0005.76
2024-05-11 17:07:00,SystemResetWarning,0828.7,4.99,000.00,024.8,022.7,000.0,033.7,026.1,023.4,0000.0,0011.29,0006.30,0005.81
2024-05-11 17:08:00,SystemResetWarning,0828.7,5.00,000.00,024.8,023.0,000.0,033.6,026.3,023.5,0000.0,0011.27,0006.32,0005.85
2024-05-11 17:09:00,SystemResetWarning,0828.6,5.00,000.00,024.9,023.3,000.0,033.5,026.4,023.5,0000.0,0012.16,0006.35,0005.88
2024-05-11 17:10:00,SystemResetWarning,0828.7,5.01,000.00,024.9,023.6,000.0,033.4,026.6,023.6,0000.0,0013.08,0006.38,0005.90
2024-05-11 17:11:00,SystemResetWarning,0828.6,4.99,000.00,025.0,023.9,000.0,033.4,026.7,023.3,0000.0,0013.17,0006.42,0005.93
2024-05-11 17:12:00,SystemResetWarning,0828.6,4.99,000.00,025.0,024.1,000.0,033.4,026.7,023.3,0000.0,0013.20,0006.49,0006.00
2024-05-11 17:13:00,SystemResetWarning,0828.6,5.00,000.00,025.1,024.2,000.0,033.4,026.8,023.5,0000.0,0013.39,0006.60,0006.07
2024-05-11 17:14:00,SystemResetWarning,0828.6,5.01,000.00,025.1,024.4,000.0,033.4,026.9,023.1,0000.0,0013.44,0006.65,0006.10
2024-05-11 17:15:00,SystemResetWarning,0828.6,4.99,000.00,025.2,024.5,000.0,033.4,027.0,022.7,0000.0,0013.03,0006.67,0006.11
2024-05-11 17:16:00,SystemResetWarning,0828.6,4.99,000.00,025.2,024.6,000.0,033.4,027.0,022.6,0000.0,0012.99,0006.64,0006.11
2024-05-11 17:17:00,SystemResetWarning,0828.6,5.02,000.00,025.3,024.7,000.0,033.4,027.1,022.7,0000.0,0013.11,0006.62,0006.10
2024-05-11 17:18:00,SystemResetWarning,0828.6,5.00,000.00,025.3,024.8,000.0,033.4,027.1,022.6,0000.0,0013.01,0006.59,0006.08
2024-05-11 17:19:00,SystemResetWarning,0828.5,4.99,000.00,025.4,024.9,000.0,033.5,027.2,022.7,0000.0,0013.55,0006.60,0006.08
2024-05-11 17:20:00,SystemResetWarning,0828.5,5.00,000.00,025.4,024.9,000.0,033.5,027.2,022.9,0000.0,0013.43,0006.63,0006.10
2024-05-11 17:21:00,SystemResetWarning,0828.5,4.99,000.00,025.5,025.0,000.0,033.5,027.2,023.0,0000.0,0012.64,0006.66,0006.10
2024-05-11 17:22:00,SystemResetWarning,0828.6,5.00,000.00,025.5,025.0,000.0,033.6,027.3,022.5,0000.0,0012.49,0006.64,0006.09
2024-05-11 17:23:00,SystemResetWarning,0828.5,5.02,000.00,025.5,025.1,000.0,033.6,027.3,022.3,0000.0,0011.78,0006.60,0006.07
2024-05-11 17:24:00,SystemResetWarning,0828.5,4.98,000.00,025.5,024.2,000.0,033.7,026.8,022.3,0000.0,0011.59,0006.55,0006.05
2024-05-11 17:25:00,SystemResetWarning,0828.5,5.00,000.00,025.1,022.0,000.0,033.7,025.7,022.8,0000.0,0011.72,0006.54,0006.06
2024-05-11 17:26:00,SystemResetWarning,0828.4,5.02,000.00,024.7,021.5,000.0,033.7,025.3,023.1,0000.0,0012.34,0006.57,0006.07
2024-05-11 17:27:00,SystemResetWarning,0828.5,4.99,000.00,024.6,021.9,000.0,033.6,025.5,023.5,0000.0,0013.15,0006.63,0006.11
2024-05-11 17:28:00,SystemResetWarning,0828.5,5.00,000.00,024.5,022.3,000.0,033.4,025.7,023.1,0000.0,0014.11,0006.70,0006.15
2024-05-11 17:29:00,SystemResetWarning,0828.5,5.00,000.00,024.6,022.7,000.0,033.3,026.0,023.6,0000.0,0014.03,0006.70,0006.16
2024-05-11 17:30:00,SystemResetWarning,0828.6,5.01,000.00,024.6,023.0,000.0,033.2,026.2,023.4,0000.0,0013.60,0006.69,0006.16
2024-05-11 17:31:00,SystemResetWarning,0828.5,4.99,000.00,024.7,023.3,000.0,033.1,026.3,023.4,0000.0,0013.15,0006.61,0006.11
2024-05-11 17:32:00,SystemResetWarning,0828.5,4.99,000.00,024.7,023.6,000.0,033.1,026.4,023.8,0000.0,0013.21,0006.60,0006.09
2024-05-11 17:33:00,SystemResetWarning,0828.4,5.00,000.00,024.8,023.8,000.0,033.1,026.5,023.5,0000.0,0013.20,0006.66,0006.15
2024-05-11 17:34:00,SystemResetWarning,0828.4,5.01,000.00,024.8,024.0,000.0,033.1,026.6,023.7,0000.0,0013.55,0006.73,0006.19
2024-05-11 17:35:00,SystemResetWarning,0828.5,5.00,000.00,024.9,024.1,000.0,033.1,026.7,023.4,0000.0,0013.75,0006.79,0006.24
2024-05-11 17:36:00,SystemResetWarning,0828.4,5.00,000.00,024.9,024.3,000.0,033.1,026.7,023.3,0000.0,0013.36,0006.82,0006.28
2024-05-11 17:37:00,SystemResetWarning,0828.4,5.00,000.00,025.0,024.4,000.0,033.1,026.8,023.4,0000.0,0012.92,0006.84,0006.33
2024-05-11 17:38:00,SystemResetWarning,0828.5,5.00,000.00,025.0,024.5,000.0,033.2,026.9,023.1,0000.0,0012.79,0006.88,0006.38
2024-05-11 17:39:00,SystemResetWarning,0828.5,5.00,000.00,025.1,024.6,000.0,033.2,026.9,023.1,0000.0,0012.34,0006.94,0006.46
2024-05-11 17:40:00,SystemResetWarning,0828.5,5.01,000.00,025.1,024.7,000.0,033.2,027.0,023.5,0000.0,0012.66,0007.07,0006.55
2024-05-11 17:41:00,SystemResetWarning,0828.5,5.00,000.00,025.2,024.8,000.0,033.3,027.0,023.2,0000.0,0013.13,0007.21,0006.65
2024-05-11 17:42:00,SystemResetWarning,0828.6,5.00,000.00,025.2,024.8,000.0,033.3,027.1,023.1,0000.0,0013.78,0007.40,0006.77
2024-05-11 17:43:00,SystemResetWarning,0828.6,5.00,000.00,025.3,024.9,000.0,033.3,027.1,023.1,0000.0,0013.95,0007.47,0006.84
2024-05-11 17:44:00,SystemResetWarning,0828.6,5.00,000.00,025.3,025.0,000.0,033.4,027.2,023.0,0000.0,0014.39,0007.46,0006.83
2024-05-11 17:45:00,SystemResetWarning,0828.5,4.99,000.00,025.4,025.0,000.0,033.4,027.2,023.1,0000.0,0015.01,0007.46,0006.82
2024-05-11 17:46:00,SystemResetWarning,0828.5,4.99,000.00,025.3,023.7,000.0,033.5,026.6,023.4,0000.0,0016.08,0007.46,0006.82
2024-05-11 17:47:00,SystemResetWarning,0828.4,5.00,000.00,024.8,021.6,000.0,033.5,025.4,024.5,0000.0,0016.52,0007.49,0006.82
2024-05-11 17:48:00,SystemResetWarning,0828.4,5.01,000.00,024.5,021.3,000.0,033.5,025.2,024.4,0000.0,0016.53,0007.51,0006.84
2024-05-11 17:49:00,SystemResetWarning,0828.4,5.02,000.00,024.4,021.8,000.0,033.3,025.4,024.8,0000.0,0016.63,0007.52,0006.85
2024-05-11 17:50:00,SystemResetWarning,0828.4,4.99,000.00,024.4,022.2,000.0,033.2,025.6,024.8,0000.0,0015.97,0007.55,0006.85
2024-05-11 17:51:00,SystemResetWarning,0828.4,5.00,000.00,024.4,022.6,000.0,033.1,025.8,025.0,0000.0,0016.40,0007.56,0006.87
2024-05-11 17:52:00,SystemResetWarning,0828.4,5.01,000.00,024.5,022.9,000.0,033.0,026.0,025.1,0000.0,0016.97,0007.60,0006.89
2024-05-11 17:53:00,SystemResetWarning,0828.4,4.99,000.00,024.5,023.2,000.0,033.0,026.2,024.4,0000.0,0017.73,0007.60,0006.91
2024-05-11 17:54:00,SystemResetWarning,0828.4,5.00,000.00,024.6,023.5,000.0,032.9,026.3,024.2,0000.0,0018.28,0007.64,0006.96
2024-05-11 17:55:00,SystemResetWarning,0828.4,5.01,000.00,024.6,023.7,000.0,032.9,026.4,024.3,0000.0,0018.04,0007.73,0007.02
2024-05-11 17:56:00,SystemResetWarning,0828.3,5.00,000.00,024.7,023.9,000.0,032.9,026.5,024.5,0000.0,0017.34,0007.77,0007.09
2024-05-11 17:57:00,SystemResetWarning,0828.4,5.00,000.00,024.7,024.0,000.0,033.0,026.5,024.1,0000.0,0016.53,0007.88,0007.18
2024-05-11 17:58:00,SystemResetWarning,0828.3,5.00,000.00,024.8,024.2,000.0,033.0,026.6,024.0,0000.0,0016.61,0007.97,0007.24
2024-05-11 17:59:00,SystemResetWarning,0828.3,5.00,000.00,024.8,024.3,000.0,033.0,026.7,023.7,0000.0,0016.88,0008.03,0007.31
